Showing default

ARVAKER-3, 64566

Orbit data source: Space-Track

ARVAKER-3, 64566 is a payload satellite owned by NSC (NO) in SSO that was launched on Mon, 23 Jun 2025 UTC via an FALCON 9 launch vehicle from the Air Force Western Test Range (AFWTR). Payload-class satellites include a variety of spacecraft equipped with specific instruments for various scientific and technological missions. These include communications satellites like Starlink; space stations such as the ISS; scientific satellites like the Hubble; Earth observation satellites from companies like Planet Labs, Umbra, and HawkEye 360; GPS; miniature CubeSats for education and research; and military/defense satellites.

Loading next visibility...
Identifier
64566, 2025-135AQ
Orbit
SSO
Country
Flag of NONO / NOR
Related business
Manufacturer
NanoAvionics
Mission
Operational Commercial Sigint
Bus & Motor
MP42, Unknown motor
Mass
~100 kg wet, ~100 kg dry
Launch date (UTC)
2025-06-23 (1 year ago)
Launch vehicle
FALCON 9
Launch site
Air Force Western Test Range (AFWTR)
Object type
Payload
Rocket body
Debris
Shape & HBR
Box + 2 Pan, 0.5 m
Radar Cross Section
0.146 m², Medium (>0.1 m² and < 1m²)

Expand to show TLE details & history
Last TLE update: 7 hours ago

TLE from 7 hours ago
0 ARVAKER-3
1 64566U 25135AQ  26163.87030699  .00002680  00000-0  25930-3 0  9991
2 64566  97.7723 278.0443 0001251  19.1070 341.0196 14.93601259 53236
Epoch: 2026-06-12T20:53Z
TLE epoch observation values (Epoch: 2026-06-12T20:53:14.523Z)
Latitude
-0.00009°
Longitude
63.54025°
Altitude
588.937 km
Speed
7.566 km/s
True Right ascension
18h 32m 10s
True Declination
0° 00' 00"
Sunlit
Object was in full shadow at epoch
Visualization orbit readout
Latitude
Unknown
Longitude
Unknown
Altitude
Unknown
Speed
Unknown
Apparent Right ascension
Unknown
Apparent Declination
Unknown
Sunlit
N/A
Visualization observer readout
Local Sidereal Time
13:59:09
Azimuth
Unknown
Elevation
Unknown
Doppler factor
Unknown
Orbital elements
Apogee altitude
584.606 km
Perigee altitude
582.864 km
Semi-major axis
6,961.872 km
Eccentricity
0.00013
Inclination
97.7723°
RAAN
278.0443°
Arg. of periapsis
19.107°
True anomaly
341.01494°
Mean anomaly
341.0196°
Eccentric anomaly
341.01727°
Mean motion
3.73641 °/min
Orbital period
96.35 mins
BSTAR
0.0002593
Loading maneuver chart data...
Computing Atmospheric mass density...
Loading historical data...
Loading historical data...
Loading historical data...
Loading historical data...
Loading historical data...
Loading historical data...
Loading historical data...

Documentation

Showing up to 5 results
|